[[{"header":{"parameterUnit":"m.s-1","parameterCategory":2,"la1":30.2991,"la2":30.254,"lo1":-89.0895,"lo2":-89.0444,"dy":0.0017,"dx":0.0017,"nx":28,"ny":28,"refTime":"2024-06-29T03:00:00:Z","depth":"0","parameterNumber":2,"parameterNumberName":"U-component_of_CURRENTS"},"data":[0,0,0,0,0,0,0,0,0,0,0,0,0,0,0,0,0,0,0,0,0,0,0,0,0,0,0,0,0,0,0,0,0,0,0,0,0,0,0,0,0,0,0,0,0,0,0,0,0,0,0,0,0,0,0,0,0,0,0.216,0.216,0,0.2188,0.2188,0.2188,0.2163,0.2162,0.2161,0.216,0.219,0.2191,0.2193,0,0,0,0,0,0,0,0,0,0,0,0,0,0.2101,0.2102,0.216,0.216,0.2161,0.2188,0.2188,0.2188,0.2163,0.2162,0.2161,0.216,0.2189,0.2191,0.2193,0,0,0,0,0,0,0,0,0,0,0,0,0,0.2125,0.2102,0.2159,0.2153,0.2153,0.2188,0.2188,0.2188,0.2163,0.2162,0.2161,0.216,0.2189,0.2191,0.2193,0.2231,0,0,0.22,0.2201,0,0,0,0,0,0,0,0,0.2124,0.2127,0.2154,0.2154,0.2154,0.2173,0.2179,0.2204,0.2163,0.2156,0.216,0.2159,0.2187,0.2189,0.2193,0.2233,0.2234,0.2201,0.2202,0.2203,0.2204,0,0,0,0,0,0,0,0.2122,0.2126,0.2168,0.2154,0.2155,0.2156,0.2157,0.2183,0.2176,0.2157,0.2156,0.2164,0.2187,0.2191,0.2194,0.2234,0.22,0.2202,0.2204,0.2205,0.2337,0.2339,0,0,0,0,0,0,0.2125,0.2124,0.2167,0.2169,0.2139,0.2158,0.2159,0.2166,0.2176,0.2177,0.2165,0.2163,0.2188,0.2191,0.2195,0.2259,0.2203,0.2205,0.2206,0.2335,0.2338,0.234,0,0,0,0,0,0,0.2123,0.2128,0.2166,0.2149,0.2155,0.216,0.2168,0.2167,0.2169,0.2182,0.2182,0.2167,0.2187,0.2192,0.2224,0.2259,0.2206,0.2208,0.2333,0.2336,0.2339,0.2375,0,0,0,0,0,0,0.2121,0.2127,0.2135,0.215,0.2156,0.2185,0.2169,0.2169,0.2178,0.2175,0.2185,0.2186,0.2187,0.2221,0.2226,0.2261,0.221,0.233,0.2334,0.2338,0.2371,0.2379,0.2386,0,0,0,0,0,0.2119,0.213,0.2135,0.2141,0.2165,0.2186,0.2189,0.2187,0.2179,0.2184,0.2196,0.2186,0.225,0.2224,0.223,0.2267,0.2328,0.2333,0.2338,0.2368,0.2378,0.2386,0,0,0,0,0,0,0.2106,0.213,0.2135,0.2152,0.217,0.2183,0.219,0.2192,0.2206,0.2204,0.2208,0.2211,0.2257,0.2261,0.2231,0.232,0.2291,0.2297,0.2312,0.2321,0.2328,0.2283,0.2212,0,0,0,0,0,0.2111,0.2123,0.2147,0.216,0.2171,0.2183,0.2192,0.2195,0.2209,0.2212,0.2222,0.2246,0.2285,0.2298,0.2327,0.237,0.2374,0.2401,0.2409,0.2415,0.2385,0.2442,0.2451,0.2356,0.2356,0.2356,0,0,0.2107,0.2124,0.2129,0.2158,0.217,0.2184,0.2184,0.2201,0.2213,0.2217,0.2236,0.2271,0.2304,0.2353,0.2375,0.2357,0.2451,0.2421,0.2426,0.2391,0.2447,0.2456,0.2464,0.2359,0.2359,0.2358,0,0,0.2104,0.2125,0.2131,0.2149,0.2175,0.2189,0.2196,0.2217,0.2225,0.2256,0.2276,0.2322,0.2365,0.2398,0.2422,0.2488,0.2491,0.2514,0.251,0.2567,0.2574,0.2581,0.262,0.2629,0.2515,0.2515,0.2515,0,0.2097,0.2112,0.2137,0.2149,0.2162,0.219,0.2199,0.2221,0.2249,0.2266,0.2263,0.2354,0.2382,0.2454,0.2475,0.2502,0.2527,0.2471,0.2574,0.258,0.2586,0.2624,0.2634,0.2517,0.2517,0.2517,0.2517,0,0.2099,0.2111,0.2118,0.2142,0.2161,0.2176,0.2211,0.2236,0.2255,0.2278,0.2344,0.2391,0.2441,0.2479,0.249,0.2565,0.2568,0.2579,0.2543,0.2597,0.2635,0.2645,0.2521,0.252,0.2519,0.2519,0,0,0.2075,0.211,0.211,0.2118,0.2158,0.2172,0.2207,0.2248,0.2271,0.2317,0.2351,0.2433,0.2461,0.2489,0.2536,0.2577,0.2655,0.2588,0.259,0.261,0.2775,0.2833,0.2849,0.2691,0.2692,0.2693,0.2792,0,0.2064,0.2076,0.2102,0.2115,0.2124,0.2167,0.2196,0.2241,0.228,0.2324,0.2394,0.2449,0.247,0.2508,0.2557,0.2634,0.2678,0.2626,0.2731,0.2733,0.2765,0.2861,0.294,0.3039,0.2801,0.2802,0.2803,0,0.2052,0.2063,0.207,0.2102,0.2111,0.2125,0.2177,0.2209,0.2287,0.2322,0.2388,0.2442,0.2529,0.2533,0.2667,0.2637,0.2696,0.2743,0.2749,0.2784,0.2809,0.2945,0.3065,0.2967,0.2818,0.2817,0.2816,0,0.2015,0.2039,0.2042,0.2052,0.2096,0.211,0.2138,0.2204,0.224,0.2322,0.2364,0.2463,0.2529,0.2613,0.2723,0.2703,0.2858,0.2852,0.2954,0.2958,0.3032,0.304,0.3051,0.293,0.293,0.293,0.293,0,0.1992,0.1992,0.2021,0.2021,0.2032,0.2075,0.2102,0.2147,0.222,0.2268,0.236,0.2427,0.2551,0.2662,0.2736,0.2891,0.2884,0.296,0.2998,0.3051,0.306,0.2981,0.2891,0.2934,0.2933,0.2932,0.2931,0,0.1948,0.1969,0.1969,0.2001,0.2012,0.2016,0.2071,0.2097,0.2176,0.2242,0.2275,0.242,0.2581,0.271,0.2864,0.2929,0.3005,0.3101,0.3148,0.3189,0.3182,0.3093,0.298,0.2941,0.3229,0.3231,0.3233,0,0.1924,0.192,0.1938,0.1935,0.1945,0.1965,0.1985,0.2062,0.2096,0.224,0.2273,0.2454,0.2592,0.2858,0.3042,0.3224,0.3084,0.335,0.3321,0.3201,0.3128,0.2924,0.2883,0.3442,0.3445,0.3448,0.345,0,0.1873,0.188,0.1879,0.1877,0.1885,0.1903,0.1936,0.196,0.2062,0.2147,0.2275,0.2403,0.2719,0.2964,0.3223,0.3353,0.3233,0.3411,0.3291,0.3297,0.3069,0.3046,0.3325,0.3475,0.3472,0.347,0.3469,0.3468,0.1828,0.1813,0.1815,0.181,0.182,0.1833,0.1835,0.19,0.1974,0.2093,0.2233,0.2427,0.2819,0.3234,0.3356,0.3586,0.3398,0.355,0.3454,0.3257,0.3201,0.3519,0.3703,0.3702,0.3701,0.37,0.3699,0,0.1768,0.1759,0.175,0.1745,0.1731,0.1764,0.1797,0.1809,0.1877,0.2045,0.2182,0.2569,0.2926,0.3253,0.3634,0.3615,0.3522,0.3527,0.3262,0.3227,0.3563,0.3558,0.3713,0.3713,0.3713,0.3713,0.3713,0.3713,0.1733,0.17,0.1697,0.1656,0.1653,0.1634,0.1639,0.1692,0.1795,0.1997,0.219,0.2362,0.2759,0.3236,0.3474,0.3503,0.3247,0.3172,0.3019,0.3272,0.3265,0.3258,0.3232,0.3317,0.3316,0.2691,0.2686,0.2683]},{"header":{"parameterUnit":"m.s-1","parameterCategory":2,"la1":30.2991,"la2":30.254,"lo1":-89.0895,"lo2":-89.0444,"dy":0.0017,"dx":0.0017,"nx":28,"ny":28,"refTime":"2024-06-29T03:00:00:Z","depth":"0","parameterNumber":3,"parameterNumberName":"V-component_of_CURRENTS"},"data":[0,0,0,0,0,0,0,0,0,0,0,0,0,0,0,0,0,0,0,0,0,0,0,0,0,0,0,0,0,0,0,0,0,0,0,0,0,0,0,0,0,0,0,0,0,0,0,0,0,0,0,0,0,0,0,0,0,0,-0.0464,-0.0464,0,-0.0456,-0.0456,-0.0456,-0.0483,-0.0484,-0.0485,-0.0485,-0.0528,-0.0528,-0.0529,0,0,0,0,0,0,0,0,0,0,0,0,0,-0.0516,-0.0515,-0.0464,-0.0464,-0.0464,-0.0456,-0.0456,-0.0456,-0.0483,-0.0484,-0.0485,-0.0486,-0.0527,-0.0528,-0.0529,0,0,0,0,0,0,0,0,0,0,0,0,0,-0.0501,-0.0514,-0.0464,-0.0475,-0.0476,-0.0456,-0.0456,-0.0456,-0.0483,-0.0484,-0.0485,-0.0486,-0.0527,-0.0528,-0.0529,-0.0513,0,0,-0.0531,-0.0531,0,0,0,0,0,0,0,0,-0.0501,-0.0499,-0.0474,-0.0474,-0.0475,-0.0471,-0.049,-0.0477,-0.0483,-0.0482,-0.0485,-0.0486,-0.0512,-0.0514,-0.0511,-0.0515,-0.0517,-0.0531,-0.0531,-0.0532,-0.0532,0,0,0,0,0,0,0,-0.0502,-0.0499,-0.0463,-0.0473,-0.0474,-0.0485,-0.0484,-0.0488,-0.0493,-0.0482,-0.0484,-0.048,-0.0513,-0.051,-0.0512,-0.0517,-0.0531,-0.0532,-0.0532,-0.0532,-0.0507,-0.0506,0,0,0,0,0,0,-0.0498,-0.05,-0.0463,-0.0462,-0.049,-0.0483,-0.0482,-0.0472,-0.0492,-0.0495,-0.0479,-0.0481,-0.0509,-0.0512,-0.0514,-0.0495,-0.0532,-0.0532,-0.0533,-0.0508,-0.0507,-0.0505,0,0,0,0,0,0,-0.0499,-0.0495,-0.0463,-0.0481,-0.0477,-0.0481,-0.047,-0.0471,-0.0471,-0.0489,-0.0494,-0.0477,-0.0509,-0.0513,-0.0513,-0.0497,-0.0533,-0.0533,-0.0509,-0.0508,-0.0506,-0.0458,0,0,0,0,0,0,-0.0501,-0.0495,-0.0487,-0.048,-0.0476,-0.0449,-0.0469,-0.0471,-0.0466,-0.0469,-0.0489,-0.0494,-0.0511,-0.0512,-0.0514,-0.0499,-0.0534,-0.0511,-0.0509,-0.0507,-0.0461,-0.0454,-0.0449,0,0,0,0,0,-0.0503,-0.0486,-0.0486,-0.0482,-0.0464,-0.0448,-0.0447,-0.0455,-0.0465,-0.046,-0.0471,-0.0493,-0.05,-0.0511,-0.0514,-0.0499,-0.0512,-0.0509,-0.0507,-0.0463,-0.0456,-0.0449,0,0,0,0,0,0,-0.0507,-0.0486,-0.0487,-0.0466,-0.0457,-0.0453,-0.0446,-0.045,-0.0453,-0.0458,-0.048,-0.0485,-0.0479,-0.0491,-0.0504,-0.0484,-0.0509,-0.0506,-0.0474,-0.0468,-0.0462,-0.0469,-0.0535,0,0,0,0,0,-0.0502,-0.0482,-0.047,-0.0453,-0.0448,-0.0446,-0.0441,-0.0443,-0.0444,-0.0446,-0.0456,-0.0465,-0.0468,-0.0471,-0.0476,-0.0465,-0.0495,-0.0455,-0.045,-0.0445,-0.0451,-0.0477,-0.0475,-0.0497,-0.0497,-0.0497,0,0,-0.05,-0.0484,-0.0474,-0.0452,-0.0447,-0.0432,-0.0446,-0.0433,-0.0421,-0.045,-0.0439,-0.0447,-0.046,-0.0449,-0.0447,-0.0459,-0.0452,-0.0442,-0.0437,-0.0447,-0.0474,-0.0472,-0.0471,-0.0495,-0.0496,-0.0496,0,0,-0.0484,-0.0471,-0.0452,-0.044,-0.0425,-0.042,-0.0414,-0.0404,-0.0403,-0.0388,-0.0406,-0.0404,-0.0404,-0.0411,-0.0415,-0.0379,-0.0422,-0.0377,-0.0354,-0.0379,-0.0378,-0.0377,-0.041,-0.0413,-0.0373,-0.0373,-0.0373,0,-0.0488,-0.0457,-0.0445,-0.0426,-0.0414,-0.0412,-0.0394,-0.0386,-0.0377,-0.0374,-0.0379,-0.0379,-0.0387,-0.0381,-0.0366,-0.0368,-0.0395,-0.038,-0.0373,-0.0373,-0.0373,-0.0407,-0.0411,-0.037,-0.0371,-0.0371,-0.0371,0,-0.0459,-0.0436,-0.0424,-0.0397,-0.0382,-0.0364,-0.0351,-0.0339,-0.0334,-0.0331,-0.0321,-0.0329,-0.0334,-0.0326,-0.0335,-0.0333,-0.0356,-0.0365,-0.0394,-0.0368,-0.0405,-0.041,-0.0367,-0.0368,-0.0368,-0.0369,0,0,-0.0466,-0.0415,-0.0411,-0.0391,-0.0364,-0.0348,-0.0326,-0.0307,-0.0296,-0.0288,-0.0278,-0.0272,-0.0284,-0.0289,-0.0299,-0.0312,-0.0329,-0.0335,-0.0338,-0.0375,-0.0394,-0.0398,-0.0405,-0.034,-0.034,-0.0341,-0.0418,0,-0.0452,-0.0407,-0.0385,-0.0345,-0.0322,-0.0309,-0.0287,-0.0271,-0.0261,-0.0251,-0.026,-0.0254,-0.0268,-0.0268,-0.0283,-0.0314,-0.034,-0.0308,-0.0407,-0.0411,-0.0424,-0.041,-0.0296,-0.0355,-0.0423,-0.0424,-0.0425,0,-0.0434,-0.0403,-0.0361,-0.0312,-0.0302,-0.0281,-0.0249,-0.0229,-0.0218,-0.0214,-0.0219,-0.023,-0.0242,-0.0257,-0.0317,-0.0298,-0.0346,-0.0375,-0.0379,-0.0407,-0.0424,-0.0391,-0.0362,-0.039,-0.0433,-0.0432,-0.0431,0,-0.0436,-0.0385,-0.0349,-0.0333,-0.0283,-0.0265,-0.0242,-0.0221,-0.0198,-0.0198,-0.0185,-0.0214,-0.0219,-0.028,-0.0332,-0.0331,-0.0404,-0.0414,-0.0471,-0.0472,-0.0408,-0.0403,-0.0423,-0.0473,-0.0473,-0.0472,-0.0472,0,-0.0421,-0.0391,-0.0347,-0.0325,-0.0283,-0.0256,-0.0218,-0.0203,-0.0178,-0.0142,-0.017,-0.0144,-0.0224,-0.0265,-0.0332,-0.0412,-0.0412,-0.0472,-0.0491,-0.0387,-0.0379,-0.0428,-0.0486,-0.0475,-0.0475,-0.0474,-0.0474,0,-0.0415,-0.039,-0.0344,-0.0295,-0.0279,-0.0249,-0.0192,-0.0162,-0.0147,-0.0103,-0.01,-0.0102,-0.0145,-0.0233,-0.0327,-0.0403,-0.0517,-0.0519,-0.0396,-0.0399,-0.0482,-0.0542,-0.0678,-0.0749,-0.06,-0.06,-0.0601,0,-0.0399,-0.0377,-0.0325,-0.0294,-0.0267,-0.0222,-0.0185,-0.0153,-0.0116,-0.0059,-0.0032,-0.0054,-0.0025,-0.0173,-0.0306,-0.0442,-0.0526,-0.0468,-0.0448,-0.0475,-0.0557,-0.0628,-0.0685,-0.0343,-0.0341,-0.034,-0.0339,0,-0.0366,-0.0355,-0.0319,-0.0264,-0.0221,-0.0165,-0.0111,-0.0075,-0.0026,0.003,0.0112,0.0148,0.0039,0.0008,-0.0196,-0.0312,-0.0494,-0.0447,-0.0492,-0.0378,-0.044,-0.0519,-0.0321,-0.0327,-0.0328,-0.0329,-0.0329,-0.033,-0.0343,-0.0311,-0.027,-0.022,-0.017,-0.0097,-0.0028,0.0043,0.0132,0.0295,0.0275,0.0451,0.0365,0.0136,-0.0096,-0.0343,-0.0446,-0.0362,-0.0442,-0.0518,-0.0561,-0.0352,-0.0371,-0.0372,-0.0374,-0.0375,-0.0376,0,-0.031,-0.0271,-0.0219,-0.0148,-0.0084,-0.0066,0.0037,0.0149,0.0293,0.0497,0.0628,0.0843,0.0669,0.0425,0.0066,-0.0214,-0.0383,-0.0361,-0.0394,-0.0464,-0.0253,-0.0208,-0.0171,-0.0171,-0.0171,-0.0171,-0.017,-0.017,-0.0282,-0.0233,-0.0205,-0.0088,-0.0029,0.0105,0.0181,0.037,0.0561,0.0956,0.1237,0.1393,0.1384,0.0625,0.0076,-0.015,-0.0406,-0.0454,-0.0646,-0.0414,-0.0418,-0.0422,-0.0389,-0.039,-0.039,-0.0771,-0.0774,-0.0776]}],[{"header":{"parameterUnit":"m.s-1","parameterCategory":2,"la1":30.2991,"la2":30.254,"lo1":-89.0895,"lo2":-89.0444,"dy":0.0017,"dx":0.0017,"nx":28,"ny":28,"refTime":"2024-06-29T03:00:00:Z","depth":"2","parameterNumber":2,"parameterNumberName":"U-component_of_CURRENTS"},"data":[0,0,0,0,0,0,0,0,0,0,0,0,0,0,0,0,0,0,0,0,0,0,0,0,0,0,0,0,0,0,0,0,0,0,0,0,0,0,0,0,0,0,0,0,0,0,0,0,0,0,0,0,0,0,0,0,0,0,0.0362,0.0362,0,0.0396,0.0396,0.0396,0.0376,0.0375,0.0374,0.0373,0.0366,0.0367,0.0368,0,0,0,0,0,0,0,0,0,0,0,0,0,0.0296,0.0297,0.0362,0.0362,0.0363,0.0395,0.0396,0.0396,0.0376,0.0375,0.0374,0.0373,0.0366,0.0367,0.0368,0,0,0,0,0,0,0,0,0,0,0,0,0,0.0325,0.0297,0.0362,0.0357,0.0357,0.0395,0.0396,0.0396,0.0376,0.0375,0.0374,0.0372,0.0366,0.0367,0.0368,0.04,0,0,0.0371,0.0371,0,0,0,0,0,0,0,0,0.0324,0.0328,0.0358,0.0358,0.0358,0.0381,0.037,0.0396,0.0376,0.0368,0.0373,0.0372,0.0369,0.037,0.0378,0.04,0.04,0.0371,0.0371,0.0372,0.0372,0,0,0,0,0,0,0,0.0322,0.0326,0.0374,0.0358,0.0358,0.0359,0.0362,0.0375,0.0374,0.0369,0.0367,0.0373,0.0369,0.0377,0.0378,0.0399,0.0371,0.0372,0.0372,0.0373,0.0488,0.049,0,0,0,0,0,0,0.0321,0.0325,0.0373,0.0375,0.0338,0.0362,0.0364,0.0374,0.0375,0.0374,0.0374,0.0372,0.0376,0.0377,0.0377,0.0473,0.0372,0.0373,0.0373,0.0485,0.0488,0.0491,0,0,0,0,0,0,0.0319,0.0325,0.0372,0.0351,0.0357,0.0364,0.0375,0.0375,0.0387,0.038,0.0378,0.0386,0.0375,0.0376,0.0412,0.047,0.0373,0.0374,0.0482,0.0486,0.0489,0.0626,0,0,0,0,0,0,0.0317,0.0324,0.0337,0.0351,0.0358,0.0413,0.0377,0.0377,0.0393,0.039,0.0389,0.0387,0.0374,0.0411,0.0413,0.0469,0.0375,0.0479,0.0484,0.0488,0.0618,0.0634,0.0647,0,0,0,0,0,0.0315,0.0345,0.0337,0.0343,0.0373,0.0414,0.0419,0.0418,0.0395,0.0419,0.0419,0.0387,0.0441,0.0414,0.0416,0.0474,0.0477,0.0483,0.0488,0.0612,0.0631,0.0647,0,0,0,0,0,0,0.0333,0.0346,0.0338,0.0372,0.0396,0.0412,0.0435,0.0427,0.0446,0.0441,0.0421,0.0421,0.0475,0.0454,0.0424,0.0519,0.0454,0.046,0.0547,0.0565,0.0579,0.0612,0.0376,0,0,0,0,0,0.034,0.0362,0.0377,0.0409,0.0419,0.0426,0.0441,0.0442,0.0458,0.0464,0.0467,0.0474,0.0501,0.0515,0.053,0.0583,0.0603,0.0619,0.0634,0.0646,0.0675,0.075,0.0775,0.0509,0.0509,0.0509,0,0,0.0358,0.0368,0.0382,0.0413,0.0427,0.0472,0.0433,0.0468,0.0513,0.0462,0.0525,0.0525,0.0525,0.0591,0.0612,0.058,0.0739,0.0653,0.0664,0.0686,0.0759,0.0785,0.0808,0.0513,0.0512,0.0512,0,0,0.0412,0.0412,0.0448,0.0473,0.05,0.0512,0.0524,0.0549,0.0567,0.0623,0.0606,0.0647,0.0673,0.0706,0.0718,0.0822,0.0811,0.0815,0.0921,0.0994,0.1017,0.1038,0.1125,0.1152,0.0824,0.0824,0.0824,0,0.0433,0.0477,0.0469,0.0514,0.0547,0.0534,0.0592,0.0618,0.0656,0.0699,0.0658,0.075,0.0739,0.0844,0.0878,0.0859,0.0898,0.0854,0.1016,0.1036,0.1055,0.1139,0.1167,0.0832,0.0831,0.083,0.0829,0,0.0512,0.055,0.0579,0.0627,0.0664,0.0713,0.0744,0.079,0.0799,0.0832,0.0928,0.0928,0.0985,0.0989,0.0964,0.1099,0.1085,0.1025,0.0975,0.109,0.1171,0.1198,0.0842,0.0839,0.0837,0.0835,0,0,0.056,0.062,0.0633,0.0667,0.0727,0.0764,0.0855,0.0942,0.101,0.105,0.1153,0.1205,0.1203,0.1219,0.1201,0.1261,0.1422,0.1207,0.1207,0.1302,0.1612,0.1568,0.1592,0.1389,0.1393,0.1397,0.1626,0,0.0629,0.0714,0.0741,0.0841,0.0888,0.0923,0.1008,0.1085,0.1138,0.1232,0.1269,0.1339,0.1291,0.1313,0.1383,0.1403,0.1495,0.1367,0.1479,0.1484,0.1437,0.1622,0.126,0.143,0.1652,0.1656,0.1659,0,0.0704,0.0748,0.0845,0.0937,0.0964,0.1028,0.1158,0.1234,0.1363,0.1405,0.1501,0.1511,0.1632,0.1535,0.1703,0.1624,0.165,0.1658,0.1666,0.1596,0.149,0.1345,0.147,0.1703,0.17,0.1697,0.1694,0,0.0728,0.0829,0.0901,0.0934,0.1036,0.1101,0.1168,0.1294,0.136,0.1514,0.1571,0.171,0.1766,0.1839,0.1871,0.1799,0.2038,0.1928,0.1933,0.193,0.1632,0.1594,0.2069,0.2069,0.2069,0.2068,0.2067,0,0.0789,0.0851,0.0911,0.0953,0.1047,0.1122,0.1241,0.133,0.1455,0.1549,0.1651,0.1735,0.184,0.1962,0.1975,0.2075,0.2139,0.2018,0.2008,0.1671,0.1636,0.1854,0.1826,0.2077,0.2075,0.2073,0.2072,0,0.0807,0.085,0.0926,0.1024,0.1054,0.112,0.1234,0.1317,0.1447,0.1572,0.1617,0.1798,0.1975,0.209,0.2231,0.2206,0.2285,0.2294,0.1912,0.1853,0.2104,0.208,0.2343,0.2344,0.2345,0.2345,0.2346,0,0.0826,0.0863,0.0943,0.0968,0.1011,0.1101,0.1163,0.1293,0.1372,0.1588,0.1646,0.1867,0.197,0.2217,0.2168,0.2251,0.238,0.2061,0.1851,0.2181,0.2144,0.2118,0.2094,0.1518,0.1512,0.1507,0.1503,0,0.0848,0.0865,0.0908,0.0951,0.1003,0.1067,0.1163,0.1209,0.1377,0.1479,0.1635,0.1727,0.189,0.1832,0.1974,0.1949,0.2016,0.1961,0.2432,0.1503,0.1421,0.1378,0.1378,0.1456,0.1461,0.1465,0.1467,0.1469,0.084,0.0854,0.0885,0.093,0.0974,0.1021,0.1067,0.1156,0.1248,0.1385,0.1508,0.1573,0.1505,0.1515,0.1553,0.1618,0.1706,0.1652,0.166,0.1676,0.1538,0.146,0.148,0.1485,0.1489,0.1492,0.1495,0,0.0825,0.0836,0.0865,0.0905,0.0928,0.0978,0.1058,0.1087,0.1158,0.1251,0.1335,0.1083,0.104,0.1158,0.1073,0.1089,0.0983,0.1179,0.099,0.103,0.1066,0.0894,0.0669,0.0669,0.0669,0.067,0,0,0.0814,0.0819,0.0832,0.0846,0.0878,0.0921,0.0958,0.0987,0.1031,0.0988,0.0972,0.0949,0.0963,0.0746,0.0706,0.0748,0.0911,0.0715,0.1327,0.1132,0.1172,0.1239,0.1006,0,0,0,0,0]},{"header":{"parameterUnit":"m.s-1","parameterCategory":2,"la1":30.2991,"la2":30.254,"lo1":-89.0895,"lo2":-89.0444,"dy":0.0017,"dx":0.0017,"nx":28,"ny":28,"refTime":"2024-06-29T03:00:00:Z","depth":"2","parameterNumber":3,"parameterNumberName":"V-component_of_CURRENTS"},"data":[0,0,0,0,0,0,0,0,0,0,0,0,0,0,0,0,0,0,0,0,0,0,0,0,0,0,0,0,0,0,0,0,0,0,0,0,0,0,0,0,0,0,0,0,0,0,0,0,0,0,0,0,0,0,0,0,0,0,0.0162,0.0161,0,0.01,0.0099,0.0098,-0.0007,-0.0009,-0.0011,-0.0013,-0.0153,-0.0155,-0.0157,0,0,0,0,0,0,0,0,0,0,0,0,0,0.0196,0.0196,0.0162,0.0161,0.016,0.01,0.0099,0.0098,-0.0007,-0.001,-0.0012,-0.0014,-0.0153,-0.0155,-0.0157,0,0,0,0,0,0,0,0,0,0,0,0,0,0.0163,0.0196,0.0162,0.01,0.0094,0.01,0.0099,0.0098,-0.0007,-0.001,-0.0013,-0.0015,-0.0152,-0.0155,-0.0157,-0.0114,0,0,-0.0166,-0.0167,0,0,0,0,0,0,0,0,0.0165,0.0162,0.011,0.0105,0.0098,0.0051,0.006,0.0023,-0.0006,0.0032,-0.0013,-0.0017,-0.009,-0.0098,-0.0102,-0.0121,-0.0127,-0.0166,-0.0168,-0.0169,-0.017,0,0,0,0,0,0,0,0.0167,0.0164,0.0138,0.011,0.0102,0.0078,0.007,0.0053,-0.0013,0.0028,0.0021,0.0014,-0.0095,-0.0099,-0.0106,-0.0129,-0.0166,-0.0169,-0.017,-0.0171,-0.0227,-0.0227,0,0,0,0,0,0,0.0178,0.0166,0.014,0.0136,0.0124,0.008,0.0071,0.0069,-0.0011,-0.0026,0.0017,0.001,-0.0092,-0.0103,-0.0111,-0.0138,-0.0169,-0.0172,-0.0173,-0.0227,-0.0227,-0.0227,0,0,0,0,0,0,0.0179,0.0176,0.0142,0.0149,0.0143,0.0082,0.0081,0.0069,0.0032,-0.0019,-0.0036,-0.0012,-0.0095,-0.0108,-0.0151,-0.0142,-0.0173,-0.0175,-0.0227,-0.0227,-0.0227,-0.0144,0,0,0,0,0,0,0.018,0.0177,0.0176,0.015,0.0143,0.014,0.0084,0.007,0.0035,0.0024,-0.0048,-0.0063,-0.0099,-0.0147,-0.0154,-0.0146,-0.0178,-0.0228,-0.0227,-0.0227,-0.0147,-0.0141,-0.0136,0,0,0,0,0,0.0182,0.02,0.0177,0.0173,0.0145,0.0141,0.0136,0.0083,0.0036,0.0035,-0.0027,-0.0062,-0.015,-0.0148,-0.0157,-0.015,-0.0228,-0.0227,-0.0227,-0.0149,-0.0142,-0.0136,0,0,0,0,0,0,0.0217,0.019,0.0164,0.0172,0.0153,0.0123,0.0118,0.0078,0.0032,0.0008,-0.0054,-0.0071,-0.0108,-0.0138,-0.0135,-0.0167,-0.0196,-0.0197,-0.0134,-0.0128,-0.0122,-0.009,-0.018,0,0,0,0,0,0.0227,0.0229,0.02,0.0207,0.0197,0.0153,0.0141,0.0106,0.0065,0.004,-0.001,-0.0065,-0.0103,-0.0126,-0.0161,-0.0168,-0.0198,-0.0173,-0.0167,-0.0162,-0.0142,-0.0197,-0.0194,-0.0225,-0.0225,-0.0225,0,0,0.0247,0.023,0.0232,0.0214,0.0192,0.02,0.0137,0.0122,0.0121,0.0035,0.0011,-0.0048,-0.0103,-0.0121,-0.0139,-0.015,-0.0166,-0.0161,-0.0156,-0.0139,-0.0196,-0.0193,-0.019,-0.0225,-0.0225,-0.0225,0,0,0.0296,0.0267,0.0285,0.0274,0.0244,0.0224,0.0216,0.0177,0.0146,0.0126,0.0054,0.0003,-0.0044,-0.0082,-0.0107,-0.0088,-0.0139,-0.0109,-0.0047,-0.01,-0.0097,-0.0096,-0.0112,-0.0113,-0.0101,-0.01,-0.01,0,0.0314,0.0336,0.0293,0.0306,0.0307,0.0237,0.0262,0.0235,0.0184,0.0175,0.0125,0.004,-0.0019,-0.0039,-0.0042,-0.0072,-0.0104,-0.0066,-0.0091,-0.009,-0.009,-0.0107,-0.0109,-0.0096,-0.0097,-0.0097,-0.0098,0,0.0381,0.039,0.0402,0.0397,0.0392,0.0404,0.0364,0.0347,0.0296,0.0268,0.0224,0.014,0.009,0.0059,0.0012,-0.001,-0.0033,-0.0081,-0.0103,-0.0081,-0.0101,-0.0104,-0.0091,-0.0092,-0.0093,-0.0094,0,0,0.044,0.0449,0.045,0.0469,0.0441,0.0452,0.0452,0.0447,0.0456,0.0379,0.0385,0.0292,0.0228,0.0194,0.0117,0.0068,0.0036,0.0,-0.0005,-0.0004,-0.0058,-0.0011,-0.001,-0.0027,-0.0027,-0.0028,-0.0066,0,0.0504,0.056,0.0544,0.0599,0.0626,0.0578,0.0597,0.0575,0.0539,0.0526,0.0423,0.0385,0.0284,0.0247,0.0185,0.0072,0.0029,0.0053,-0.0089,-0.0092,-0.0044,-0.0012,-0.0064,-0.0098,-0.007,-0.007,-0.0071,0,0.0574,0.0604,0.0668,0.0711,0.0718,0.0735,0.0753,0.0763,0.0723,0.0691,0.0625,0.0534,0.0448,0.0348,0.0187,0.0203,0.0086,-0.0004,-0.0009,0.0008,-0.005,-0.0121,-0.0105,-0.0077,-0.0076,-0.0076,-0.0075,0,0.0643,0.0695,0.0752,0.0762,0.0791,0.081,0.0822,0.0807,0.0823,0.078,0.0776,0.0658,0.0595,0.043,0.0237,0.0201,0.0072,-0.0006,-0.0064,-0.0061,-0.0143,-0.0146,-0.0115,-0.0115,-0.0115,-0.0115,-0.0114,0,0.072,0.0766,0.0786,0.0817,0.0889,0.0883,0.0945,0.094,0.0938,0.0964,0.0854,0.0843,0.0605,0.0492,0.03,0.0138,0.0116,-0.0029,-0.0066,-0.0113,-0.0112,-0.0132,-0.0134,-0.0116,-0.0116,-0.0115,-0.0115,0,0.0777,0.0792,0.086,0.0903,0.0918,0.0963,0.1008,0.1054,0.1048,0.1074,0.1054,0.0974,0.0839,0.0627,0.0387,0.0242,0.0062,0.0003,-0.0006,-0.0042,-0.0052,-0.0049,-0.0063,-0.0061,-0.006,-0.0059,-0.0058,0,0.0808,0.0849,0.091,0.0944,0.0958,0.1019,0.1063,0.1089,0.1133,0.1151,0.1172,0.1075,0.1016,0.0746,0.0458,0.0188,0.012,-0.0013,-0.0093,-0.001,-0.0046,-0.0045,-0.0043,-0.0177,-0.0177,-0.0177,-0.0177,0,0.0864,0.0877,0.0924,0.0991,0.104,0.1115,0.1176,0.1233,0.1267,0.1294,0.1326,0.1289,0.106,0.076,0.0438,0.0258,0.0029,-0.002,0.0041,-0.0156,-0.0115,-0.015,-0.0146,-0.0179,-0.0178,-0.0178,-0.0178,-0.0178,0.0882,0.0917,0.0965,0.1029,0.109,0.1178,0.1236,0.132,0.1397,0.1437,0.1434,0.1306,0.0933,0.0468,0.0259,0.0065,0.007,-0.0098,-0.01,-0.0102,-0.0082,-0.0038,-0.0083,-0.0082,-0.0082,-0.0081,-0.0081,0,0.0887,0.0921,0.0997,0.107,0.1138,0.1161,0.1282,0.1347,0.1433,0.1434,0.1453,0.0967,0.0691,0.0361,0.006,-0.0106,-0.0133,-0.0159,-0.0227,-0.0224,-0.0222,-0.0211,-0.0246,-0.0246,-0.0247,-0.0247,0,0,0.0887,0.0937,0.098,0.1075,0.1121,0.119,0.1246,0.1363,0.1377,0.1325,0.1158,0.102,0.0573,0.0236,0.0016,-0.0091,-0.0092,-0.0092,0.005,0.0002,0.0007,-0.0185,-0.0164,0,0,0,0,0]}],[{"header":{"parameterUnit":"m.s-1","parameterCategory":2,"la1":30.2991,"la2":30.254,"lo1":-89.0895,"lo2":-89.0444,"dy":0.0017,"dx":0.0017,"nx":28,"ny":28,"refTime":"2024-06-29T03:00:00:Z","depth":"4","parameterNumber":2,"parameterNumberName":"U-component_of_CURRENTS"},"data":[0,0,0,0,0,0,0,0,0,0,0,0,0,0,0,0,0,0,0,0,0,0,0,0,0,0,0,0,0,0,0,0,0,0,0,0,0,0,0,0,0,0,0,0,0,0,0,0,0,0,0,0,0,0,0,0,0,0,0.0292,0.0293,0,0.0305,0.0305,0.0305,0.0325,0.0326,0.0326,0.0327,0.0286,0.0284,0.0283,0,0,0,0,0,0,0,0,0,0,0,0,0,0.0201,0.0202,0.0292,0.0293,0.0293,0.0306,0.0305,0.0305,0.0325,0.0326,0.0326,0.0327,0.0287,0.0285,0.0283,0,0,0,0,0,0,0,0,0,0,0,0,0,0.0226,0.0203,0.0292,0.0307,0.0309,0.0306,0.0305,0.0305,0.0325,0.0326,0.0327,0.0328,0.0287,0.0285,0.0282,0.0244,0,0,0.0274,0.0273,0,0,0,0,0,0,0,0,0.0225,0.0229,0.0305,0.0306,0.0309,0.0318,0.0258,0.0283,0.0324,0.0314,0.0327,0.0328,0.0294,0.0291,0.0286,0.0242,0.0241,0.0274,0.0272,0.0271,0.0271,0,0,0,0,0,0,0,0.0223,0.0228,0.0293,0.0305,0.0308,0.0286,0.0291,0.0263,0.0294,0.0315,0.0318,0.0325,0.0294,0.0288,0.0285,0.024,0.0274,0.0272,0.027,0.0269,0.0172,0.0171,0,0,0,0,0,0,0.0233,0.0227,0.0293,0.0294,0.0273,0.0287,0.0293,0.0311,0.0295,0.0296,0.0325,0.0326,0.0292,0.0288,0.0283,0.0261,0.0271,0.0269,0.0267,0.0173,0.0172,0.017,0,0,0,0,0,0,0.0231,0.0239,0.0292,0.0263,0.0269,0.0289,0.0308,0.031,0.0326,0.0304,0.0302,0.0341,0.0293,0.0287,0.0268,0.0259,0.0268,0.0265,0.0174,0.0172,0.0171,0.0201,0,0,0,0,0,0,0.0229,0.0239,0.0261,0.0264,0.0271,0.0304,0.0307,0.031,0.033,0.0333,0.0316,0.0313,0.0293,0.0272,0.0265,0.0256,0.0263,0.0175,0.0173,0.0171,0.0202,0.0201,0.0201,0,0,0,0,0,0.0225,0.0248,0.0262,0.0271,0.03,0.0305,0.0306,0.0319,0.033,0.0337,0.0322,0.0315,0.0255,0.0269,0.0261,0.0251,0.0176,0.0174,0.0172,0.0202,0.0201,0.0201,0,0,0,0,0,0,0.0221,0.0253,0.0268,0.0302,0.0311,0.031,0.0323,0.0329,0.0323,0.0329,0.0306,0.03,0.0277,0.0256,0.0273,0.0214,0.0212,0.0208,0.0237,0.0236,0.0236,0.0256,0.0261,0,0,0,0,0,0.0231,0.0259,0.0277,0.0305,0.0314,0.0321,0.0329,0.0336,0.033,0.0331,0.0315,0.0289,0.0255,0.0244,0.0213,0.0186,0.0181,0.0171,0.017,0.017,0.0179,0.0154,0.0153,0.0163,0.0163,0.0163,0,0,0.0235,0.0259,0.0275,0.0306,0.0316,0.0325,0.0328,0.0344,0.0345,0.0323,0.0318,0.0289,0.0247,0.0215,0.0202,0.0203,0.0166,0.0167,0.0168,0.0176,0.0151,0.0151,0.015,0.0161,0.0162,0.0162,0,0,0.0246,0.0282,0.0304,0.0315,0.034,0.034,0.035,0.0354,0.0355,0.0341,0.0319,0.0291,0.0249,0.0215,0.0191,0.0167,0.0164,0.0153,0.017,0.0145,0.0145,0.0145,0.0154,0.0154,0.0154,0.0154,0.0154,0,0.0253,0.0287,0.0307,0.0327,0.034,0.035,0.0363,0.0357,0.0352,0.0343,0.0345,0.0276,0.0246,0.0198,0.019,0.0168,0.0168,0.018,0.0148,0.0147,0.0146,0.0155,0.0155,0.0155,0.0155,0.0155,0.0155,0,0.0271,0.0304,0.0316,0.0347,0.0358,0.0372,0.0373,0.0373,0.0373,0.0361,0.0326,0.0282,0.0246,0.0221,0.02,0.0168,0.0176,0.0153,0.0158,0.0147,0.0157,0.0156,0.0157,0.0157,0.0156,0.0156,0,0,0.0269,0.032,0.0327,0.0347,0.0373,0.038,0.038,0.0377,0.0377,0.0355,0.0343,0.028,0.0269,0.0241,0.0206,0.0181,0.0177,0.0173,0.0171,0.0198,0.0154,0.0161,0.0161,0.0153,0.0152,0.0152,0.0171,0,0.0279,0.0321,0.034,0.037,0.0389,0.0398,0.0397,0.0392,0.0382,0.0368,0.0322,0.0297,0.0272,0.0259,0.023,0.0182,0.0174,0.0177,0.0146,0.0146,0.0166,0.0159,0.015,0.017,0.017,0.017,0.017,0,0.0286,0.0317,0.0355,0.0389,0.0398,0.0415,0.0422,0.0421,0.0399,0.039,0.0363,0.0334,0.0293,0.0276,0.0216,0.0222,0.0201,0.017,0.0169,0.0166,0.015,0.0175,0.0168,0.0169,0.0169,0.0169,0.0169,0,0.0271,0.0322,0.0356,0.0371,0.0408,0.0423,0.0438,0.0431,0.0429,0.0413,0.0412,0.036,0.0341,0.0294,0.0236,0.0233,0.0176,0.016,0.0152,0.0154,0.0131,0.0131,0.0134,0.0134,0.0133,0.0133,0.0133,0,0.0269,0.0295,0.0361,0.038,0.0411,0.0436,0.0456,0.0458,0.046,0.0445,0.0432,0.0389,0.0345,0.03,0.0251,0.0202,0.0191,0.0164,0.0153,0.0145,0.0145,0.0132,0.0132,0.0134,0.0134,0.0134,0.0134,0,0.0241,0.0288,0.0328,0.0387,0.041,0.0432,0.0478,0.0479,0.0497,0.0479,0.0479,0.0426,0.0364,0.0327,0.0248,0.0229,0.0172,0.0161,0.018,0.0169,0.0172,0.0173,0.017,0.017,0.017,0.0171,0.0171,0,0.0231,0.0253,0.0331,0.0359,0.0392,0.0437,0.0455,0.0489,0.0483,0.0465,0.0437,0.0405,0.036,0.0273,0.022,0.0179,0.0163,0.0176,0.0157,0.0184,0.0174,0.0174,0.0174,0.0171,0.0171,0.0171,0.0171,0,0.0197,0.0233,0.0266,0.0332,0.0372,0.0403,0.0435,0.043,0.0443,0.0475,0.0405,0.0371,0.031,0.0242,0.0239,0.0183,0.0186,0.0178,0.0178,0.016,0.0185,0.0175,0.0175,0.0172,0.0172,0.0172,0.0172,0,0.0171,0.0181,0.0236,0.029,0.0345,0.0356,0.0372,0.0372,0.0383,0.0388,0.034,0.0294,0.0281,0.0239,0.0191,0.019,0.0184,0.0194,0.0192,0.0191,0.0186,0.022,0.0214,0,0,0,0,0,0.0146,0.0155,0.0188,0.0245,0.0304,0.0332,0.0351,0.0358,0.0375,0.0336,0.0356,0.0293,0.0251,0.0199,0.0199,0.0178,0.0172,0.0177,0.018,0.0177,0.0176,0.0165,0,0,0,0,0,0,0.0122,0.0153,0.0166,0.0212,0.0244,0.0284,0.0291,0.029,0.0271,0.0293,0.0255,0.0309,0.0245,0.0258,0.0201,0.0198,0.0204,0.0174,0.0174,0.0177,0.0176,0.0176,0.0164,0,0,0,0,0]},{"header":{"parameterUnit":"m.s-1","parameterCategory":2,"la1":30.2991,"la2":30.254,"lo1":-89.0895,"lo2":-89.0444,"dy":0.0017,"dx":0.0017,"nx":28,"ny":28,"refTime":"2024-06-29T03:00:00:Z","depth":"4","parameterNumber":3,"parameterNumberName":"V-component_of_CURRENTS"},"data":[0,0,0,0,0,0,0,0,0,0,0,0,0,0,0,0,0,0,0,0,0,0,0,0,0,0,0,0,0,0,0,0,0,0,0,0,0,0,0,0,0,0,0,0,0,0,0,0,0,0,0,0,0,0,0,0,0,0,0.0108,0.0108,0,0.0054,0.0054,0.0053,0.0056,0.0057,0.0058,0.0059,0.004,0.0039,0.0038,0,0,0,0,0,0,0,0,0,0,0,0,0,0.0158,0.0157,0.0108,0.0108,0.0107,0.0054,0.0053,0.0053,0.0056,0.0057,0.0058,0.0059,0.0041,0.0039,0.0038,0,0,0,0,0,0,0,0,0,0,0,0,0,0.0122,0.0157,0.0108,0.0103,0.0102,0.0054,0.0053,0.0052,0.0056,0.0057,0.0058,0.006,0.0041,0.0039,0.0037,-0.0001,0,0,0.0031,0.0031,0,0,0,0,0,0,0,0,0.0124,0.012,0.0105,0.0104,0.0102,0.0064,0.0064,0.0037,0.0055,0.0072,0.0059,0.006,0.0051,0.0049,0.0033,-0.0002,-0.0003,0.0031,0.003,0.0029,0.0029,0,0,0,0,0,0,0,0.0127,0.0122,0.0086,0.0104,0.0103,0.0084,0.0081,0.0058,0.0055,0.0071,0.0071,0.0067,0.0051,0.0035,0.0033,-0.0003,0.0031,0.003,0.0028,0.0028,-0.0061,-0.0062,0,0,0,0,0,0,0.0137,0.0125,0.0088,0.0084,0.0118,0.0083,0.0079,0.0074,0.0054,0.0053,0.0065,0.0067,0.0038,0.0035,0.0033,-0.0,0.0029,0.0027,0.0026,-0.006,-0.0061,-0.0062,0,0,0,0,0,0,0.0138,0.0134,0.009,0.0104,0.0098,0.0081,0.0075,0.0073,0.0058,0.005,0.0049,0.0055,0.0039,0.0035,0.0005,-0.0001,0.0026,0.0025,-0.0058,-0.006,-0.0062,-0.0075,0,0,0,0,0,0,0.014,0.0135,0.0131,0.0105,0.0097,0.006,0.0074,0.0071,0.0054,0.0055,0.004,0.004,0.004,0.0008,0.0003,-0.0003,0.0023,-0.0057,-0.0059,-0.0061,-0.0073,-0.0077,-0.008,0,0,0,0,0,0.0142,0.013,0.0131,0.0126,0.0094,0.0059,0.0052,0.0045,0.0052,0.0038,0.0027,0.004,-0.0008,0.0005,-0.0,-0.0007,-0.0056,-0.0059,-0.0061,-0.0071,-0.0076,-0.008,0,0,0,0,0,0,0.015,0.0129,0.0129,0.0113,0.0088,0.006,0.0045,0.0039,0.0016,0.0019,0.0017,0.0015,-0.0013,-0.0016,-0.0001,-0.0041,-0.0027,-0.0031,-0.0033,-0.0038,-0.0041,-0.0039,0.0021,0,0,0,0,0,0.0149,0.0135,0.0113,0.0097,0.0087,0.0064,0.0049,0.0041,0.0019,0.0011,0.0001,-0.0012,-0.0032,-0.0038,-0.0058,-0.0085,-0.0083,-0.0092,-0.0095,-0.0098,-0.0102,-0.0106,-0.011,-0.0071,-0.0071,-0.0071,0,0,0.0146,0.0134,0.0125,0.0097,0.0079,0.0051,0.0058,0.003,0.0006,0.0011,-0.0023,-0.0031,-0.0044,-0.0072,-0.0083,-0.0072,-0.0111,-0.0101,-0.0104,-0.0106,-0.0109,-0.0113,-0.0116,-0.0073,-0.0073,-0.0072,0,0,0.0127,0.0123,0.0102,0.0081,0.0053,0.0037,0.0029,-0.0002,-0.0013,-0.005,-0.005,-0.0066,-0.0096,-0.0105,-0.0113,-0.0153,-0.0134,-0.0152,-0.0163,-0.0167,-0.017,-0.0172,-0.018,-0.0183,-0.0148,-0.0148,-0.0148,0,0.0124,0.0098,0.0088,0.0061,0.0042,0.0031,-0.0,-0.0021,-0.0058,-0.0072,-0.0061,-0.0108,-0.0113,-0.0146,-0.0151,-0.016,-0.0157,-0.0141,-0.017,-0.0172,-0.0174,-0.0182,-0.0185,-0.0149,-0.0149,-0.0149,-0.0149,0,0.0085,0.0065,0.0049,0.0015,-0.0007,-0.0037,-0.0062,-0.0084,-0.0093,-0.011,-0.0144,-0.0155,-0.0174,-0.0178,-0.0174,-0.0194,-0.0186,-0.0176,-0.0153,-0.0179,-0.0186,-0.0188,-0.015,-0.015,-0.015,-0.0149,0,0,0.0071,0.0031,0.0025,0.0006,-0.0033,-0.0056,-0.0093,-0.0132,-0.0152,-0.0175,-0.0202,-0.0226,-0.0216,-0.0225,-0.022,-0.022,-0.0229,-0.0197,-0.0197,-0.0196,-0.0236,-0.0238,-0.0241,-0.0214,-0.0215,-0.0215,-0.0236,0,0.004,-0.0005,-0.0023,-0.007,-0.0096,-0.0114,-0.0146,-0.0178,-0.0197,-0.0225,-0.0234,-0.0253,-0.0238,-0.0233,-0.0237,-0.0233,-0.0236,-0.0224,-0.0221,-0.0221,-0.0211,-0.0244,-0.0217,-0.0238,-0.0239,-0.0239,-0.024,0,0.0001,-0.0021,-0.0065,-0.0105,-0.0118,-0.0142,-0.0183,-0.0212,-0.0249,-0.026,-0.0276,-0.028,-0.0293,-0.0267,-0.0277,-0.0265,-0.0251,-0.0247,-0.0247,-0.0245,-0.0228,-0.0208,-0.0245,-0.0244,-0.0244,-0.0244,-0.0243,0,-0.0006,-0.0055,-0.0084,-0.01,-0.0145,-0.016,-0.0179,-0.0217,-0.0237,-0.0267,-0.0277,-0.0303,-0.0302,-0.0299,-0.0282,-0.0274,-0.0288,-0.0278,-0.0275,-0.0275,-0.0258,-0.0255,-0.0285,-0.0285,-0.0285,-0.0284,-0.0284,0,-0.0037,-0.0066,-0.0082,-0.0099,-0.0125,-0.0154,-0.018,-0.0204,-0.0235,-0.0255,-0.0278,-0.0291,-0.0303,-0.0311,-0.0298,-0.0297,-0.0299,-0.0288,-0.0284,-0.0265,-0.0263,-0.026,-0.0257,-0.0285,-0.0285,-0.0285,-0.0285,0,-0.0057,-0.0069,-0.01,-0.0127,-0.0128,-0.0142,-0.0163,-0.0184,-0.0209,-0.0233,-0.0236,-0.028,-0.0295,-0.0312,-0.0315,-0.0314,-0.0313,-0.0307,-0.0294,-0.0286,-0.0296,-0.0294,-0.0324,-0.0324,-0.0325,-0.0325,-0.0325,0,-0.0076,-0.0089,-0.0101,-0.0098,-0.0106,-0.0118,-0.0126,-0.0158,-0.0173,-0.0218,-0.0227,-0.0261,-0.0284,-0.0305,-0.0319,-0.0329,-0.0317,-0.0322,-0.031,-0.031,-0.0302,-0.0299,-0.0297,-0.0325,-0.0326,-0.0326,-0.0326,0,-0.0109,-0.0103,-0.0118,-0.0093,-0.0091,-0.0107,-0.0114,-0.0122,-0.0159,-0.0182,-0.0213,-0.0243,-0.0275,-0.0303,-0.0314,-0.0312,-0.0327,-0.0324,-0.0324,-0.0313,-0.0311,-0.0303,-0.03,-0.0327,-0.0326,-0.0326,-0.0326,0,-0.0123,-0.0128,-0.0116,-0.0096,-0.0083,-0.0088,-0.0105,-0.0119,-0.0139,-0.0182,-0.0185,-0.0231,-0.0259,-0.0293,-0.0296,-0.0311,-0.0313,-0.0306,-0.0306,-0.0305,-0.0293,-0.0287,-0.03,0,0,0,0,0,-0.0132,-0.0126,-0.0115,-0.01,-0.0082,-0.0064,-0.009,-0.0112,-0.0134,-0.0149,-0.0169,-0.0194,-0.0239,-0.0264,-0.0279,-0.0303,-0.0317,-0.0321,-0.0308,-0.0331,-0.033,-0.0319,0,0,0,0,0,0,-0.0141,-0.0131,-0.012,-0.0089,-0.006,-0.0057,-0.0061,-0.0092,-0.0102,-0.0126,-0.0149,-0.0173,-0.0216,-0.0212,-0.0264,-0.0274,-0.0265,-0.0345,-0.0345,-0.0332,-0.0331,-0.033,-0.0318,0,0,0,0,0]}]]